TimeMST,TemperatureF,Dew PointF,Humidity,Sea Level PressureIn,VisibilityMPH,Wind Direction,Wind SpeedMPH,Gust SpeedMPH,PrecipitationIn,Events,Conditions,WindDirDegrees,DateUTC
12:15 AM,71.6,46.4,41,29.88,10.0,Calm,Calm,-,N/A,,Clear,0,2012-10-11 07:15:00
12:35 AM,71.6,48.2,43,29.88,10.0,Calm,Calm,-,N/A,,Clear,0,2012-10-11 07:35:00
12:55 AM,71.6,48.2,43,29.88,10.0,Calm,Calm,-,N/A,,Clear,0,2012-10-11 07:55:00
1:15 AM,71.6,48.2,43,29.88,10.0,Calm,Calm,-,N/A,,Clear,0,2012-10-11 08:15:00
1:35 AM,71.6,50.0,46,29.88,10.0,Calm,Calm,-,N/A,,Clear,0,2012-10-11 08:35:00
1:55 AM,71.6,50.0,46,29.88,10.0,Calm,Calm,-,N/A,,Clear,0,2012-10-11 08:55:00
2:15 AM,69.8,48.2,46,29.88,10.0,Calm,Calm,-,N/A,,Clear,0,2012-10-11 09:15:00
2:35 AM,68.0,46.4,46,29.88,10.0,Calm,Calm,-,N/A,,Clear,0,2012-10-11 09:35:00
2:55 AM,68.0,48.2,49,29.87,10.0,Calm,Calm,-,N/A,,Partly Cloudy,0,2012-10-11 09:55:00
3:15 AM,69.8,50.0,49,29.87,10.0,Calm,Calm,-,N/A,,Clear,0,2012-10-11 10:15:00
3:35 AM,69.8,51.8,53,29.87,10.0,Calm,Calm,-,N/A,,Partly Cloudy,0,2012-10-11 10:35:00
4:15 AM,69.8,51.8,53,29.87,10.0,Calm,Calm,-,N/A,,Scattered Clouds,0,2012-10-11 11:15:00
4:35 AM,69.8,53.6,56,29.87,10.0,Calm,Calm,-,N/A,,Mostly Cloudy,0,2012-10-11 11:35:00
4:55 AM,71.6,53.6,53,29.88,10.0,Calm,Calm,-,N/A,,Overcast,0,2012-10-11 11:55:00
5:15 AM,71.6,51.8,50,29.88,10.0,Calm,Calm,-,N/A,,Mostly Cloudy,0,2012-10-11 12:15:00
5:35 AM,71.6,51.8,50,29.88,10.0,Calm,Calm,-,N/A,,Mostly Cloudy,0,2012-10-11 12:35:00
5:55 AM,69.8,51.8,53,29.88,10.0,Calm,Calm,-,N/A,,Scattered Clouds,0,2012-10-11 12:55:00
6:15 AM,71.6,53.6,53,29.88,10.0,Calm,Calm,-,N/A,,Mostly Cloudy,0,2012-10-11 13:15:00
6:35 AM,71.6,53.6,53,29.90,10.0,Calm,Calm,-,N/A,,Mostly Cloudy,0,2012-10-11 13:35:00
6:55 AM,69.8,55.4,60,29.88,10.0,Calm,Calm,-,N/A,,Scattered Clouds,0,2012-10-11 13:55:00
7:15 AM,71.6,53.6,53,29.89,10.0,Calm,Calm,-,N/A,,Mostly Cloudy,0,2012-10-11 14:15:00
7:35 AM,71.6,53.6,53,29.90,10.0,Calm,Calm,-,N/A,,Mostly Cloudy,0,2012-10-11 14:35:00
7:55 AM,71.6,53.6,53,29.90,10.0,Calm,Calm,-,N/A,,Scattered Clouds,0,2012-10-11 14:55:00
8:15 AM,73.4,51.8,47,29.91,10.0,Calm,Calm,-,N/A,,Partly Cloudy,0,2012-10-11 15:15:00
8:35 AM,73.4,51.8,47,29.91,10.0,Calm,Calm,-,N/A,,Clear,0,2012-10-11 15:35:00
8:55 AM,73.4,51.8,47,29.91,10.0,Calm,Calm,-,N/A,,Clear,0,2012-10-11 15:55:00
9:15 AM,75.2,51.8,44,29.92,10.0,Calm,Calm,-,N/A,,Clear,0,2012-10-11 16:15:00
9:35 AM,77.0,51.8,41,29.91,10.0,Calm,Calm,-,N/A,,Partly Cloudy,0,2012-10-11 16:35:00
9:55 AM,78.8,51.8,39,29.91,10.0,Calm,Calm,-,N/A,,Partly Cloudy,0,2012-10-11 16:55:00
10:15 AM,80.6,53.6,39,29.91,10.0,SSE,4.6,-,N/A,,Partly Cloudy,150,2012-10-11 17:15:00
10:55 AM,82.4,55.4,39,29.89,10.0,SSE,6.9,16.1,N/A,,Clear,150,2012-10-11 17:55:00
11:15 AM,86.0,53.6,33,29.89,10.0,South,9.2,16.1,N/A,,Partly Cloudy,190,2012-10-11 18:15:00
11:35 AM,84.2,53.6,35,29.88,10.0,South,8.1,-,N/A,,Partly Cloudy,170,2012-10-11 18:35:00
11:55 AM,84.2,53.6,35,29.87,10.0,Calm,Calm,-,N/A,,Clear,0,2012-10-11 18:55:00
12:15 PM,84.2,53.6,35,29.87,10.0,SE,10.4,19.6,N/A,,Mostly Cloudy,140,2012-10-11 19:15:00
12:35 PM,84.2,53.6,35,29.85,10.0,Calm,Calm,-,N/A,,Scattered Clouds,0,2012-10-11 19:35:00
12:55 PM,86.0,51.8,31,29.84,10.0,SSE,8.1,-,N/A,,Scattered Clouds,160,2012-10-11 19:55:00
1:15 PM,87.8,51.8,29,29.83,10.0,South,13.8,20.7,N/A,,Partly Cloudy,180,2012-10-11 20:15:00
1:35 PM,87.8,50.0,27,29.82,10.0,South,18.4,23.0,N/A,,Partly Cloudy,190,2012-10-11 20:35:00
1:55 PM,87.8,50.0,27,29.82,10.0,South,17.3,24.2,N/A,,Clear,190,2012-10-11 20:55:00
2:15 PM,87.8,50.0,27,29.82,10.0,South,12.7,16.1,N/A,,Partly Cloudy,190,2012-10-11 21:15:00
2:35 PM,84.2,51.8,33,29.81,10.0,SSW,15.0,25.3,N/A,,Scattered Clouds,210,2012-10-11 21:35:00
3:15 PM,86.0,53.6,33,29.81,10.0,SSW,15.0,25.3,N/A,,Clear,200,2012-10-11 22:15:00
3:35 PM,84.2,51.8,33,29.81,10.0,SSW,15.0,24.2,N/A,,Clear,210,2012-10-11 22:35:00
3:55 PM,84.2,51.8,33,29.81,10.0,SSW,16.1,21.9,N/A,,Clear,200,2012-10-11 22:55:00
4:15 PM,84.2,51.8,33,29.81,10.0,SSW,17.3,23.0,N/A,,Partly Cloudy,210,2012-10-11 23:15:00
4:35 PM,84.2,51.8,33,29.81,10.0,SSW,15.0,23.0,N/A,,Partly Cloudy,200,2012-10-11 23:35:00
4:55 PM,82.4,48.2,30,29.81,10.0,SSW,16.1,-,N/A,,Clear,210,2012-10-11 23:55:00
5:15 PM,82.4,48.2,30,29.81,10.0,SW,13.8,-,N/A,,Clear,220,2012-10-12 00:15:00
5:35 PM,82.4,46.4,28,29.82,10.0,SSW,16.1,-,N/A,,Clear,210,2012-10-12 00:35:00
6:15 PM,78.8,44.6,30,29.83,10.0,SW,12.7,-,N/A,,Clear,220,2012-10-12 01:15:00
6:35 PM,78.8,42.8,28,29.83,10.0,SSW,10.4,-,N/A,,Clear,210,2012-10-12 01:35:00
6:55 PM,78.8,42.8,28,29.84,10.0,SW,11.5,-,N/A,,Clear,230,2012-10-12 01:55:00
7:15 PM,78.8,42.8,28,29.85,10.0,SW,12.7,-,N/A,,Clear,220,2012-10-12 02:15:00
7:35 PM,77.0,44.6,32,29.85,10.0,SW,15.0,20.7,N/A,,Partly Cloudy,230,2012-10-12 02:35:00
7:55 PM,75.2,44.6,34,29.86,10.0,SW,16.1,19.6,N/A,,Partly Cloudy,230,2012-10-12 02:55:00
8:55 PM,75.2,39.2,27,29.88,10.0,SSW,6.9,-,N/A,,Mostly Cloudy,210,2012-10-12 03:55:00
9:15 PM,75.2,39.2,27,29.89,10.0,Calm,Calm,-,N/A,,Mostly Cloudy,0,2012-10-12 04:15:00
9:35 PM,73.4,37.4,27,29.89,10.0,Calm,Calm,-,N/A,,Mostly Cloudy,0,2012-10-12 04:35:00
9:55 PM,73.4,35.6,25,29.90,10.0,Calm,Calm,-,N/A,,Overcast,0,2012-10-12 04:55:00
10:15 PM,73.4,33.8,23,29.90,10.0,Calm,Calm,-,N/A,,Overcast,0,2012-10-12 05:15:00
10:35 PM,71.6,33.8,25,29.90,10.0,South,5.8,-,N/A,,Overcast,190,2012-10-12 05:35:00
10:55 PM,71.6,33.8,25,29.91,10.0,Calm,Calm,-,N/A,,Overcast,0,2012-10-12 05:55:00
11:15 PM,71.6,35.6,27,29.91,10.0,South,5.8,-,N/A,,Overcast,170,2012-10-12 06:15:00
11:35 PM,71.6,37.4,29,29.91,10.0,South,4.6,-,N/A,,Overcast,180,2012-10-12 06:35:00
11:55 PM,69.8,37.4,31,29.91,10.0,Calm,Calm,-,N/A,,Mostly Cloudy,0,2012-10-12 06:55:00